FW8127 Weather Reports


time (UTC)temp
C
wind
direction
speed
KPH
gust
KPH
rain 1hr
cm
rain 24hr
cm
rain mn
cm
humidity
%
barometer
mb
20260504110553 10 0 0.0 0.0 0.00 0.00 0.00 80 1015.7
20260504100548 9 0 0.0 8.0 0.00 0.00 0.00 80 1015.8
20260504081601 10 0 0.0 6.4 0.00 0.00 0.00 71 1015.9
20260504081048 10 0 0.0 6.4 0.00 0.00 0.00 71 1015.9
20260504080550 10 203 1.6 6.4 0.00 0.00 0.00 70 1015.9
20260504080105 10 200 0.0 6.4 0.00 0.00 0.00 70 1015.8
20260504060115 11 237 1.6 14.5 0.00 0.00 0.00 59 1015.6
20260504050550 11 254 4.8 14.5 0.00 0.00 0.00 55 1015.7
20260504050112 11 254 3.2 12.9 0.00 0.00 0.00 56 1015.8
20260504045549 11 212 3.2 12.9 0.00 0.00 0.00 56 1015.6
20260504045048 11 234 3.2 11.3 0.00 0.00 0.00 57 1015.7
20260504044553 11 304 3.2 9.7 0.00 0.00 0.00 57 1015.7
20260504044052 10 284 1.6 6.4 0.00 0.00 0.00 57 1015.7
20260504043548 10 261 1.6 9.7 0.00 0.00 0.00 58 1015.6
20260504043106 10 250 1.6 9.7 0.00 0.00 0.00 59 1015.5
20260504042548 10 274 1.6 6.4 0.00 0.00 0.00 60 1015.4
20260504042049 10 257 1.6 6.4 0.00 0.00 0.00 61 1015.3
20260504041549 10 0 0.0 4.8 0.00 0.00 0.00 61 1015.3
20260504041048 10 242 0.0 3.2 0.00 0.00 0.00 60 1015.1
20260504040547 10 0 0.0 6.4 0.00 0.00 0.00 61 1015.1
20260504040059 10 243 0.0 6.4 0.00 0.00 0.00 61 1015.1
20260504035549 9 248 0.0 4.8 0.00 0.00 0.00 63 1015.0
20260504035048 9 215 0.0 3.2 0.00 0.00 0.00 64 1015.1
20260504034557 9 0 0.0 3.2 0.00 0.00 0.00 64 1015.0
20260504034047 9 0 0.0 4.8 0.00 0.00 0.00 64 1014.9
20260504033548 9 215 1.6 4.8 0.00 0.00 0.00 64 1015.0
20260504033103 9 0 0.0 3.2 0.00 0.00 0.00 64 1014.9
20260504032548 9 0 1.6 3.2 0.00 0.00 0.00 64 1014.9
20260504032050 9 215 0.0 3.2 0.00 0.00 0.00 64 1014.8
20260504031558 9 0 0.0 1.6 0.00 0.00 0.00 63 1014.8
20260504031048 9 0 0.0 3.2 0.00 0.00 0.00 63 1014.7
20260504030548 9 0 0.0 3.2 0.00 0.00 0.00 62 1014.6
20260504030054 9 215 0.0 3.2 0.00 0.00 0.00 62 1014.8
20260504025548 9 0 0.0 1.6 0.00 0.00 0.00 62 1014.9
20260504025049 9 0 0.0 1.6 0.00 0.00 0.00 61 1014.9
20260504024601 10 0 0.0 1.6 0.00 0.00 0.00 61 1014.8
20260504024048 10 0 0.0 3.2 0.00 0.00 0.00 61 1014.8
20260504023548 10 0 0.0 3.2 0.00 0.00 0.00 60 1014.8
20260504023059 10 0 0.0 3.2 0.00 0.00 0.00 60 1015.0
20260504022546 10 0 0.0 3.2 0.00 0.00 0.00 59 1014.9
20260504022047 10 0 0.0 1.6 0.00 0.00 0.00 59 1014.9
20260504021553 10 0 0.0 3.2 0.00 0.00 0.00 58 1014.9
20260504021048 10 0 0.0 3.2 0.00 0.00 0.00 57 1014.9
20260504020548 10 217 0.0 3.2 0.00 0.00 0.00 58 1015.0
20260504020052 10 0 0.0 4.8 0.00 0.00 0.00 57 1015.0
20260504015548 10 0 0.0 4.8 0.00 0.00 0.00 57 1015.0
20260504015048 10 0 0.0 4.8 0.00 0.00 0.00 56 1015.0
20260504014558 11 0 0.0 4.8 0.00 0.00 0.00 56 1014.9
20260504014049 11 217 0.0 1.6 0.00 0.00 0.00 55 1014.8
20260504013548 11 0 0.0 3.2 0.00 0.00 0.00 54 1014.7
20260504013105 11 0 0.0 3.2 0.00 0.00 0.00 54 1014.7
20260504012548 11 0 0.0 3.2 0.00 0.00 0.00 54 1014.7
20260504012048 11 0 0.0 3.2 0.00 0.00 0.00 52 1014.6
20260504011553 12 215 0.0 4.8 0.00 0.00 0.00 52 1014.6
20260504011047 12 215 0.0 4.8 0.00 0.00 0.00 51 1014.6
20260504010548 12 215 1.6 4.8 0.00 0.00 0.00 50 1014.5
20260504010111 12 251 1.6 4.8 0.00 0.00 0.00 50 1014.5
20260504005547 13 255 1.6 6.4 0.00 0.00 0.00 49 1014.4
20260504005048 13 257 1.6 9.7 0.00 0.00 0.00 48 1014.3
20260504004553 13 275 0.0 9.7 0.00 0.00 0.00 46 1014.4
20260504004051 14 276 3.2 14.5 0.00 0.00 0.00 45 1014.2
20260504003548 14 262 1.6 14.5 0.00 0.00 0.00 45 1014.2
20260504003055 14 251 4.8 14.5 0.00 0.00 0.00 44 1014.0
20260504002547 14 271 1.6 9.7 0.00 0.00 0.00 44 1014.0
20260504002048 14 0 1.6 9.7 0.00 0.00 0.00 42 1013.8
20260504001601 14 284 3.2 9.7 0.00 0.00 0.00 42 1013.9
20260504001048 14 0 1.6 9.7 0.00 0.00 0.00 41 1013.7
20260504000550 14 0 1.6 9.7 0.00 0.00 0.00 40 1013.8
20260504000057 15 275 1.6 9.7 0.00 0.00 0.00 39 1013.8
20260503235551 15 263 1.6 12.9 0.00 0.00 0.00 39 1013.7
20260503235048 15 263 3.2 12.9 0.00 0.00 0.00 37 1013.8
20260503234556 15 302 4.8 12.9 0.00 0.00 0.00 38 1013.7
20260503234048 15 299 4.8 12.9 0.00 0.00 0.00 38 1013.6
20260503233548 15 270 3.2 14.5 0.00 0.00 0.00 37 1013.8
20260503233100 15 269 6.4 14.5 0.00 0.00 0.00 37 1013.8
20260503232550 15 255 3.2 17.7 0.00 0.00 0.00 36 1013.7
20260503232050 15 313 3.2 17.7 0.00 0.00 0.00 36 1013.7
20260503231552 16 360 8.0 20.9 0.00 0.00 0.00 36 1013.7
20260503231050 16 277 8.0 20.9 0.00 0.00 0.00 35 1013.7
20260503230549 16 348 4.8 20.9 0.00 0.00 0.00 38 1013.5
20260503230055 16 337 6.4 20.9 0.00 0.00 0.00 34 1013.6
20260503225549 16 286 9.7 17.7 0.00 0.00 0.00 35 1013.5
20260503225048 16 5 6.4 16.1 0.00 0.00 0.00 36 1013.5
20260503224552 16 338 3.2 17.7 0.00 0.00 0.00 34 1013.5
20260503224048 16 348 3.2 17.7 0.00 0.00 0.00 35 1013.6
20260503223548 16 309 6.4 17.7 0.00 0.00 0.00 34 1013.5
20260503223051 16 252 3.2 16.1 0.00 0.00 0.00 35 1013.5
20260503222548 16 309 4.8 17.7 0.00 0.00 0.00 35 1013.5
20260503222047 16 346 6.4 17.7 0.00 0.00 0.00 32 1013.5
20260503221600 16 169 6.4 17.7 0.00 0.00 0.00 35 1013.5
20260503221051 16 279 8.0 19.3 0.00 0.00 0.00 34 1013.5
20260503220552 16 346 11.3 19.3 0.00 0.00 0.00 34 1013.6
20260503220105 16 250 6.4 19.3 0.00 0.00 0.00 32 1013.5
20260503215551 16 319 8.0 19.3 0.00 0.00 0.00 34 1013.5
20260503215050 16 360 11.3 24.1 0.00 0.00 0.00 30 1013.5
20260503214554 16 248 8.0 24.1 0.00 0.00 0.00 35 1013.5
20260503214054 16 352 11.3 24.1 0.00 0.00 0.00 34 1013.5
20260503213552 16 360 9.7 20.9 0.00 0.00 0.00 35 1013.5
20260503213052 16 341 9.7 19.3 0.00 0.00 0.00 34 1013.5
20260503212551 16 292 4.8 17.7 0.00 0.00 0.00 33 1013.3
20260503212050 16 344 6.4 19.3 0.00 0.00 0.00 35 1013.4
20260503211551 16 308 6.4 24.1 0.00 0.00 0.00 34 1013.6
20260503211050 16 5 8.0 24.1 0.00 0.00 0.00 35 1013.6
20260503210550 16 302 9.7 24.1 0.00 0.00 0.00 34 1013.4
20260503210056 15 338 9.7 24.1 0.00 0.00 0.00 35 1013.4
20260503205552 15 352 11.3 22.5 0.00 0.00 0.00 34 1013.5
20260503205050 15 5 11.3 24.1 0.00 0.00 0.00 37 1013.7
20260503204602 15 5 11.3 25.7 0.00 0.00 0.00 34 1013.7
20260503204049 15 317 11.3 25.7 0.00 0.00 0.00 34 1013.6
20260503203550 15 5 14.5 27.4 0.00 0.00 0.00 35 1013.6
20260503203105 15 360 8.0 27.4 0.00 0.00 0.00 35 1013.7
20260503202552 15 5 8.0 27.4 0.00 0.00 0.00 36 1013.6
20260503202052 15 352 9.7 22.5 0.00 0.00 0.00 38 1013.8
20260503201554 15 5 9.7 25.7 0.00 0.00 0.00 37 1013.8
20260503201049 15 328 6.4 25.7 0.00 0.00 0.00 35 1013.8
20260503200550 15 280 8.0 22.5 0.00 0.00 0.00 36 1013.8
20260503200051 15 348 11.3 22.5 0.00 0.00 0.00 34 1014.0
20260503195550 15 9 12.9 20.9 0.00 0.00 0.00 37 1014.0
20260503195050 15 341 9.7 22.5 0.00 0.00 0.00 38 1014.0
20260503194607 15 352 9.7 29.0 0.00 0.00 0.00 38 1013.9
20260503194050 15 334 14.5 29.0 0.00 0.00 0.00 36 1013.9
20260503193550 15 208 11.3 29.0 0.00 0.00 0.00 37 1013.8
20260503193050 15 328 12.9 29.0 0.00 0.00 0.00 37 1014.0
20260503192550 15 346 14.5 24.1 0.00 0.00 0.00 37 1014.1
20260503192049 15 333 12.9 25.7 0.00 0.00 0.00 35 1014.1
20260503191558 15 343 11.3 25.7 0.00 0.00 0.00 38 1014.1
20260503191050 15 5 12.9 25.7 0.00 0.00 0.00 38 1014.1
20260503190549 15 341 11.3 25.7 0.00 0.00 0.00 38 1014.2
20260503190059 15 338 11.3 24.1 0.00 0.00 0.00 37 1014.2
20260503185551 14 360 9.7 25.7 0.00 0.00 0.00 37 1014.4
20260503185051 14 341 8.0 25.7 0.00 0.00 0.00 38 1014.4
20260503184555 14 23 9.7 20.9 0.00 0.00 0.00 37 1014.4
20260503184050 14 277 8.0 24.1 0.00 0.00 0.00 37 1014.4
20260503183551 14 245 9.7 24.1 0.00 0.00 0.00 38 1014.5
20260503183101 14 26 12.9 22.5 0.00 0.00 0.00 37 1014.5
20260503182550 14 360 6.4 17.7 0.00 0.00 0.00 38 1014.6
20260503182050 13 281 9.7 24.1 0.00 0.00 0.00 39 1014.5
20260503181553 13 338 9.7 24.1 0.00 0.00 0.00 37 1014.5
20260503181047 13 213 11.3 24.1 0.00 0.00 0.00 38 1014.6
20260503180550 13 329 12.9 25.7 0.00 0.00 0.00 36 1014.6
20260503180105 13 327 9.7 25.7 0.00 0.00 0.00 42 1014.7
20260503175549 13 299 9.7 22.5 0.00 0.00 0.00 38 1014.6
20260503175050 13 352 8.0 22.5 0.00 0.00 0.00 38 1014.6
20260503174554 13 331 9.7 22.5 0.00 0.00 0.00 39 1014.5
20260503174051 13 352 9.7 22.5 0.00 0.00 0.00 40 1014.7
20260503173550 13 332 8.0 20.9 0.00 0.00 0.00 41 1014.7
20260503173142 12 346 8.0 20.9 0.00 0.00 0.00 41 1014.9
20260503172550 12 332 8.0 25.7 0.00 0.00 0.00 39 1014.9
20260503172050 12 22 14.5 25.7 0.00 0.00 0.00 41 1015.0
20260503171553 12 347 6.4 20.9 0.00 0.00 0.00 42 1015.1
20260503171050 12 311 6.4 20.9 0.00 0.00 0.00 40 1015.0
20260503170550 12 327 12.9 22.5 0.00 0.00 0.00 43 1014.9
20260503150548 10 351 6.4 19.3 0.00 0.00 0.00 49 1015.6
20260503131049 9 329 12.9 24.1 0.00 0.00 0.00 55 1015.1
20260503130549 9 290 9.7 24.1 0.00 0.00 0.00 55 1015.1